This demonstration page uses our WeatherBlox Daily Observations layout. Learn more.

Left ArrowRight Arrow

Hourly Observations for October 29, 2018

Temp ( °F °C ) Dew Point ( °F °C ) Humidity (%) Winds ( mph kmh ) Pressure ( in mb ) Visibility ( mi km ) Precip ( " mm )
12:54 am 00:54 Clear 45 7.2 35 1.7 68 68 SSW 3 6 30.06 1018 10 16.0934 0 0
1:54 am 01:54 Clear 43 6.1 35 1.7 74 74 Calm 30.06 1018 10 16.0934 0 0
2:54 am 02:54 Clear 37 2.8 33 0.6 86 86 N 5 7 30.06 1018 10 16.0934 0 0
3:54 am 03:54 Clear 38 3.3 34 1.1 86 86 Calm 30.04 1017 10 16.0934 0 0
4:54 am 04:54 Clear 35 1.7 32 0 89 89 N 5 7 30.04 1017 10 16.0934 0 0
5:54 am 05:54 Clear 37 2.8 33 0.6 86 86 Calm 30.03 1017 10 16.0934 0 0
6:54 am 06:54 Clear 37 2.8 33 0.6 86 86 Calm 30.02 1017 10 16.0934 0 0
7:54 am 07:54 Clear 37 2.8 33 0.6 86 86 S 3 6 30.01 1016 10 16.0934 0 0
8:54 am 08:54 Sunny 41 5 37 2.8 86 86 S 5 7 30.01 1016 10 16.0934 0 0
9:54 am 09:54 Sunny 50 10 41 5 71 71 S 8 13 29.99 1016 10 16.0934 0 0
10:54 am 10:54 Sunny 61 16.1 39 3.9 44 44 S 16 26 29.96 1015 10 16.0934 0 0
11:54 am 11:54 Sunny 64 17.8 38 3.3 38 38 S 22 35 29.91 1013 10 16.0934 0 0
12:54 pm 12:54 Sunny 67 19.4 37 2.8 33 33 S 21 33 29.89 1012 10 16.0934 0 0
1:54 pm 13:54 Sunny 68 20 38 3.3 33 33 S 22 35 29.84 1010 10 16.0934 0 0
2:54 pm 14:54 Sunny 70 21.1 40 4.4 34 34 S 17 28 29.83 1010 10 16.0934 0 0
3:54 pm 15:54 Sunny 69 20.6 41 5 36 36 S 15 24 29.8 1009 10 16.0934 0 0
4:54 pm 16:54 Sunny 68 20 43 6.1 40 40 S 14 22 29.78 1009 10 16.0934 0 0
5:54 pm 17:54 Sunny 65 18.3 43 6.1 45 45 S 10 17 29.77 1008 10 16.0934 0 0
6:54 pm 18:54 Clear 58 14.4 42 5.6 56 56 S 9 15 29.77 1008 10 16.0934 0 0
7:54 pm 19:54 Clear 55 12.8 42 5.6 62 62 S 10 17 29.78 1008 10 16.0934 0 0
8:54 pm 20:54 Clear 52 11.1 41 5 66 66 S 8 13 29.77 1008 10 16.0934 0 0
9:54 pm 21:54 Clear 52 11.1 41 5 66 66 SSE 6 9 29.76 1008 10 16.0934 0 0
10:54 pm 22:54 Clear 53 11.7 42 5.6 66 66 SSW 3 6 29.75 1007 10 16.0934 0 0
11:54 pm 23:54 Clear 49 9.4 42 5.6 77 77 Calm 29.74 1007 10 16.0934 0 0

Powered by AerisWeather